Wind_Speed
39 38 37 35 34 34 34 33 32 32 31 29 27 25 23 22 23 24 26 27 28 29 31 27 23 23 24 24 23 22 22 23 25 24 24 25 26 25 24 22 18 16 16
40 39 37 37 37 37 36 36 35 34 34 32 28 26 24 25 26 28 30 31 31 33 34 30 26 24 24 23 20 19 21 23 25 24 24 25 25 24 23 21 18 16 15
42 41 40 41 41 40 39 38 37 36 35 33 31 30 29 29 29 30 30 32 33 34 34 32 29 27 24 22 20 20 21 22 23 23 24 24 23 22 21 19 17 16 15
46 45 44 44 44 43 41 39 39 39 37 36 35 34 33 32 31 30 29 31 32 33 34 34 32 30 26 22 19 19 20 20 22 23 23 23 22 21 19 18 16 15 15
50 49 48 46 46 45 42 40 40 40 39 39 38 38 37 35 33 31 30 31 32 33 34 34 33 31 27 23 20 20 19 19 20 21 21 21 20 18 17 16 15 15 14
50 50 49 48 47 45 42 41 41 41 41 41 41 41 40 39 37 35 34 34 35 35 33 32 31 30 27 24 22 21 20 19 20 21 20 20 19 19 18 16 14 14 12
44 49 51 49 47 45 44 43 43 43 43 43 43 43 42 41 40 39 39 38 38 37 34 32 31 29 25 23 23 23 21 20 21 21 21 22 22 20 19 15 13 13 13
34 38 43 44 44 43 43 42 42 42 42 43 44 44 43 43 42 42 42 41 39 38 35 33 31 28 25 23 22 23 23 22 21 22 22 22 23 21 17 15 14 14 14
35 36 37 36 37 38 38 39 41 42 42 42 42 42 43 43 43 43 43 42 40 37 34 31 31 30 27 24 23 22 21 21 20 20 21 22 21 20 17 16 15 14 14
35 35 34 34 35 36 37 38 40 40 40 41 41 42 43 43 42 42 41 40 41 38 36 34 33 32 28 24 23 22 21 21 20 19 19 19 18 17 15 15 16 15 15
33 35 34 33 33 34 35 36 37 38 39 40 40 40 40 39 39 38 37 37 38 37 37 38 37 35 29 24 23 24 25 24 22 20 20 20 19 17 16 16 19 19 18
33 35 36 35 35 34 35 36 37 37 36 34 33 32 32 34 36 36 36 35 35 37 40 43 41 34 28 24 23 25 26 26 24 22 21 20 20 19 19 19 20 18 17
36 36 36 35 35 36 36 35 34 33 33 30 29 31 32 31 31 32 33 33 34 36 39 42 39 32 27 26 25 26 26 25 24 23 22 21 21 20 18 18 18 16 17
35 36 37 36 34 35 35 34 33 32 31 30 29 28 28 27 26 24 24 27 28 29 31 32 28 27 28 28 27 27 26 25 24 23 23 23 23 21 18 18 19 19 18
34 32 34 37 35 33 33 32 34 34 32 31 29 26 23 22 20 18 18 18 19 20 22 23 23 25 26 27 27 28 28 27 26 24 23 23 23 22 19 18 17 18 18
35 32 30 33 36 34 32 32 33 34 32 30 28 27 25 22 20 20 20 20 21 21 21 21 21 21 22 22 23 24 25 25 24 23 22 23 24 23 22 21 21 21 20
38 35 32 31 32 34 34 32 32 31 30 28 28 29 29 26 24 24 24 25 24 23 22 22 23 22 22 22 22 24 23 22 22 22 22 22 22 22 22 22 22 21 21
36 34 31 29 29 30 31 30 31 31 30 31 32 32 31 29 27 28 29 28 27 26 25 26 26 26 26 26 26 25 25 25 24 23 22 22 21 20 20 21 22 22 23
27 26 26 27 27 28 28 28 28 28 29 29 30 31 30 30 30 31 33 33 32 31 29 28 28 30 30 30 29 28 28 28 27 27 27 25 22 21 20 21 22 23 24
21 21 20 21 22 24 26 28 28 29 30 31 32 33 33 33 33 34 35 36 35 35 33 33 33 33 34 33 33 32 32 31 30 29 29 29 28 28 27 26 25 25 26
17 19 19 19 19 19 20 23 24 25 28 30 32 34 35 36 36 36 36 37 36 35 35 36 36 36 37 36 36 36 36 35 33 31 31 32 31 31 31 30 29 29 30
11 16 19 20 20 19 18 19 20 22 25 29 32 34 36 37 37 36 36 36 35 35 36 36 36 37 37 37 37 37 37 35 34 33 33 34 34 33 33 32 32 32 32
14 14 15 18 21 23 23 23 25 27 29 32 34 35 36 36 35 34 33 32 32 32 33 33 33 34 34 35 35 35 35 34 34 34 35 36 36 37 36 35 34 34 34
15 15 16 17 20 21 22 21 22 23 24 25 26 27 28 29 31 31 32 33 33 33 33 33 34 35 35 33 33 34 35 35 36 36 37 38 38 38 38 38 38 38 37
16 17 18 20 22 24 24 24 23 22 22 23 25 26 26 26 28 30 32 33 34 35 35 36 37 38 37 36 35 36 36 36 38 39 40 41 41 41 41 41 42 42 42
19 20 22 24 25 26 26 25 25 26 26 26 25 24 23 23 25 28 30 33 35 35 37 38 39 41 41 41 41 41 41 40 41 42 44 45 45 45 45 46 46 47 47
Wind_Direction
260 260 262 264 265 268 273 276 278 281 281 283 286 285 284 287 289 288 287 285 284 284 283 283 287 289 287 284 280 281 285 290 294 296 298 300 302 299 296 295 293 294 296
259 259 260 262 264 267 270 273 275 276 278 279 281 280 279 283 285 284 282 281 281 282 283 284 290 290 286 283 278 275 278 285 290 293 297 301 300 294 292 292 292 293 292
256 255 258 260 263 265 267 270 272 273 274 276 276 277 277 280 282 282 280 279 278 278 278 281 286 287 286 282 276 270 273 280 285 289 296 302 299 293 291 289 291 291 292
258 260 260 260 262 264 267 269 270 270 270 271 272 274 276 280 282 282 279 276 275 276 278 282 285 287 286 281 272 268 271 277 282 288 297 301 301 297 292 288 291 296 296
257 259 261 261 261 264 266 268 269 269 269 270 272 275 277 279 279 276 272 270 272 274 277 283 284 284 284 278 270 265 268 272 279 287 296 302 304 301 293 286 289 296 297
256 258 260 261 262 264 264 265 266 267 268 270 272 274 275 275 273 269 265 264 266 270 275 278 278 279 279 276 270 264 266 268 274 284 291 298 306 307 300 290 287 293 300
258 258 258 259 261 262 262 262 264 266 268 269 271 272 272 271 268 265 261 260 263 266 270 270 275 275 275 275 271 264 263 266 271 279 285 290 300 306 303 289 284 291 301
260 259 257 258 259 261 261 262 262 262 263 265 267 269 269 268 265 262 260 259 260 262 265 264 269 270 271 271 270 262 260 264 269 275 282 291 297 301 299 287 283 285 293
260 257 256 256 257 258 257 256 256 257 259 261 264 266 267 266 264 261 259 258 258 260 260 260 264 266 269 267 263 260 258 261 266 272 280 288 290 293 293 288 284 279 281
257 257 260 260 257 255 255 254 254 256 258 261 263 266 267 264 262 260 259 258 257 258 256 256 261 263 264 262 256 255 257 259 262 266 272 281 286 288 291 293 290 278 265
259 258 259 260 259 258 257 256 256 259 263 264 265 266 264 261 259 259 260 258 254 253 251 253 256 258 258 256 251 252 255 256 257 261 263 269 278 284 291 299 295 279 261
268 262 258 258 257 256 256 256 257 260 262 263 263 266 266 261 259 259 259 256 254 252 250 250 252 253 250 250 250 251 252 253 255 256 257 260 268 277 285 293 297 285 269
271 265 261 258 257 256 258 259 259 259 258 262 267 270 267 262 259 259 257 256 256 253 251 250 248 245 244 247 248 250 251 252 252 251 251 253 259 268 279 286 293 288 277
275 267 259 257 258 258 259 260 258 257 259 262 272 274 265 254 255 258 258 257 258 257 253 248 241 241 244 247 248 249 250 251 250 248 248 249 254 262 269 276 284 287 286
275 274 262 254 254 256 257 257 256 258 261 262 267 268 258 254 253 255 256 255 254 254 251 248 247 249 250 248 247 248 249 249 248 248 250 251 252 255 258 264 273 278 280
269 269 268 259 253 253 255 257 258 260 260 260 258 255 256 253 249 250 253 251 249 250 253 255 254 253 252 249 247 247 248 248 249 249 252 255 256 256 257 259 265 273 279
266 267 266 264 256 252 253 258 258 258 256 252 249 249 251 249 246 245 246 248 249 251 253 252 249 249 252 252 250 247 247 250 252 253 253 254 256 258 261 264 266 268 272
266 266 264 261 258 254 253 256 256 253 248 244 241 238 241 244 246 249 249 250 254 255 255 252 249 249 251 250 250 250 254 257 258 258 258 256 255 259 263 268 271 272 272
264 261 259 260 259 256 253 253 254 250 245 241 237 237 242 247 251 256 257 256 256 255 254 254 253 254 253 251 252 256 261 262 261 259 259 257 256 259 262 266 270 274 275
260 260 260 260 260 258 255 254 254 254 253 252 251 253 255 256 257 257 257 256 255 254 253 254 255 256 257 256 258 260 262 262 260 260 260 258 258 259 260 263 267 270 273
255 249 251 252 248 246 250 252 255 257 256 256 256 258 260 260 259 257 257 256 256 255 255 255 255 256 258 260 260 260 261 260 259 260 263 263 262 262 263 264 266 268 270
248 228 231 226 220 224 233 242 247 250 250 254 257 260 263 265 264 261 258 256 256 257 257 256 255 255 256 255 255 256 257 259 258 259 261 263 265 265 265 265 267 268 269
268 258 247 236 233 238 243 248 249 246 247 255 261 264 265 265 264 260 256 253 252 253 252 251 251 251 250 252 253 254 255 256 257 260 261 261 262 264 266 267 268 269 269
265 266 264 254 246 246 248 251 252 251 254 258 259 259 260 261 261 257 253 250 247 248 250 251 251 251 250 251 254 256 256 257 257 258 260 260 261 263 266 269 270 271 272
259 254 247 241 238 239 243 247 248 245 247 249 251 253 252 250 255 256 255 252 250 252 253 254 255 256 258 258 257 256 257 258 260 261 262 262 263 265 268 269 271 271 272
261 256 250 246 242 239 239 240 239 239 241 244 249 254 256 254 256 260 261 260 260 260 260 260 261 262 264 266 266 266 264 263 263 263 264 264 265 267 269 271 271 270 270
Height
5864 5866 5868 5870 5873 5875 5877 5879 5880 5881 5882 5883 5884 5885 5886 5886 5887 5886 5885 5885 5884 5883 5881 5880 5879 5878 5878 5878 5878 5878 5877 5876 5874 5873 5872 5872 5871 5869 5868 5867 5866 5865 5864
5857 5859 5862 5863 5865 5868 5870 5873 5874 5875 5875 5876 5878 5879 5880 5881 5881 5880 5880 5879 5878 5877 5876 5874 5874 5873 5872 5872 5872 5872 5872 5871 5870 5869 5868 5867 5867 5865 5864 5863 5863 5862 5860
5848 5851 5854 5856 5858 5860 5863 5866 5867 5869 5869 5869 5871 5872 5873 5874 5874 5874 5873 5872 5872 5871 5870 5870 5869 5868 5868 5868 5867 5867 5866 5865 5865 5864 5864 5863 5862 5861 5860 5859 5858 5858 5857
5840 5842 5845 5848 5850 5852 5856 5858 5859 5860 5861 5862 5863 5865 5866 5866 5867 5867 5866 5865 5865 5864 5864 5864 5863 5863 5863 5863 5862 5861 5861 5861 5861 5860 5860 5859 5857 5856 5855 5855 5854 5853 5852
5833 5835 5836 5838 5840 5844 5848 5850 5850 5851 5853 5854 5855 5856 5857 5857 5858 5858 5858 5858 5858 5857 5858 5858 5857 5857 5857 5858 5857 5856 5856 5856 5856 5856 5855 5854 5853 5852 5851 5851 5851 5850 5848
5824 5826 5827 5829 5832 5836 5839 5840 5841 5842 5844 5845 5846 5846 5847 5848 5849 5850 5851 5850 5850 5850 5852 5851 5851 5851 5852 5852 5852 5851 5851 5851 5851 5851 5851 5850 5849 5848 5847 5846 5846 5846 5845
5814 5816 5817 5820 5823 5826 5828 5830 5831 5833 5834 5835 5835 5836 5837 5838 5840 5841 5842 5842 5843 5844 5845 5845 5845 5845 5845 5846 5846 5846 5846 5846 5846 5846 5846 5846 5845 5844 5843 5842 5842 5842 5842
5804 5804 5806 5809 5813 5816 5818 5820 5822 5823 5824 5824 5825 5826 5827 5828 5829 5830 5831 5833 5835 5836 5837 5838 5838 5839 5839 5840 5841 5841 5841 5841 5841 5841 5842 5841 5840 5840 5839 5839 5840 5839 5839
5796 5796 5797 5800 5803 5805 5808 5809 5811 5812 5813 5814 5815 5816 5817 5817 5818 5820 5822 5824 5825 5827 5829 5830 5831 5832 5833 5834 5835 5835 5836 5836 5836 5837 5837 5837 5836 5835 5835 5835 5836 5837 5836
5790 5790 5790 5792 5794 5796 5798 5799 5800 5801 5803 5804 5805 5806 5807 5807 5809 5810 5812 5814 5816 5818 5820 5822 5824 5825 5826 5827 5828 5829 5830 5830 5831 5832 5832 5832 5832 5832 5832 5832 5832 5832 5833
5783 5785 5785 5785 5787 5788 5789 5791 5792 5793 5795 5796 5796 5796 5797 5797 5799 5801 5803 5804 5806 5809 5811 5813 5816 5817 5819 5820 5821 5822 5824 5825 5826 5826 5827 5828 5828 5828 5828 5828 5828 5828 5828
5776 5777 5778 5778 5779 5780 5781 5783 5785 5786 5786 5787 5788 5788 5788 5789 5790 5792 5793 5795 5797 5799 5802 5804 5807 5809 5811 5813 5814 5816 5817 5819 5820 5821 5822 5822 5823 5823 5824 5824 5824 5823 5824
5767 5769 5769 5770 5771 5772 5773 5775 5776 5777 5778 5779 5780 5780 5780 5781 5782 5784 5785 5787 5789 5791 5793 5795 5798 5801 5804 5806 5807 5809 5810 5812 5813 5815 5816 5817 5818 5818 5819 5820 5821 5820 5820
5759 5759 5760 5762 5763 5764 5765 5766 5768 5769 5770 5772 5772 5772 5772 5773 5775 5777 5778 5781 5782 5784 5785 5788 5791 5794 5796 5799 5801 5802 5804 5805 5807 5808 5810 5811 5812 5812 5813 5815 5816 5818 5818
5750 5751 5751 5753 5754 5756 5757 5758 5759 5760 5762 5764 5766 5766 5767 5767 5769 5771 5773 5775 5777 5778 5780 5783 5785 5787 5790 5791 5793 5795 5797 5799 5801 5802 5804 5805 5806 5806 5807 5809 5811 5813 5814
5741 5742 5742 5743 5745 5747 5749 5750 5752 5753 5755 5757 5758 5760 5761 5762 5763 5766 5768 5770 5772 5774 5775 5777 5779 5781 5783 5785 5787 5789 5791 5793 5794 5795 5797 5799 5800 5801 5801 5803 5805 5807 5809
5732 5733 5734 5735 5736 5738 5740 5742 5744 5745 5747 5749 5751 5752 5754 5756 5758 5760 5762 5764 5766 5768 5770 5772 5774 5776 5777 5779 5781 5784 5785 5786 5787 5788 5790 5791 5793 5794 5795 5797 5799 5800 5802
5722 5723 5725 5726 5727 5729 5732 5734 5736 5737 5739 5740 5742 5743 5745 5748 5751 5754 5756 5757 5759 5761 5763 5765 5768 5770 5771 5773 5776 5777 5778 5780 5781 5782 5784 5785 5786 5787 5788 5790 5792 5794 5795
5712 5714 5716 5718 5719 5721 5723 5726 5728 5729 5731 5732 5734 5735 5737 5740 5743 5746 5748 5750 5752 5753 5755 5758 5760 5763 5765 5766 5768 5769 5771 5773 5774 5775 5777 5778 5779 5780 5781 5783 5785 5786 5788
5704 5706 5708 5710 5712 5713 5715 5717 5719 5722 5723 5725 5726 5727 5729 5731 5734 5737 5739 5742 5743 5745 5747 5750 5752 5754 5756 5758 5759 5761 5763 5764 5766 5767 5769 5770 5771 5772 5774 5775 5777 5778 5780
5699 5701 5703 5705 5706 5707 5708 5709 5710 5713 5714 5716 5717 5719 5720 5722 5725 5727 5730 5732 5734 5736 5737 5739 5742 5744 5746 5748 5750 5752 5754 5755 5757 5758 5759 5760 5763 5764 5765 5766 5768 5769 5771
5695 5697 5698 5700 5701 5702 5703 5703 5705 5706 5707 5707 5709 5710 5712 5713 5715 5718 5720 5722 5724 5726 5728 5730 5732 5735 5737 5739 5740 5742 5744 5746 5747 5749 5750 5752 5754 5755 5757 5757 5758 5760 5762
5693 5693 5694 5694 5695 5696 5697 5698 5700 5701 5702 5702 5702 5703 5703 5704 5706 5708 5710 5713 5714 5716 5718 5720 5722 5725 5728 5729 5731 5732 5734 5736 5737 5738 5740 5742 5744 5746 5747 5748 5750 5751 5753
5689 5689 5689 5689 5690 5691 5691 5692 5692 5693 5694 5695 5695 5695 5696 5697 5698 5700 5702 5704 5706 5707 5708 5710 5712 5714 5717 5720 5721 5722 5724 5726 5727 5728 5730 5732 5734 5736 5737 5738 5739 5740 5742
5684 5684 5684 5684 5684 5685 5686 5686 5686 5687 5688 5688 5689 5689 5690 5691 5691 5691 5692 5694 5696 5697 5698 5699 5700 5703 5705 5707 5709 5710 5712 5714 5716 5718 5719 5721 5722 5723 5724 5726 5728 5729 5730
5678 5678 5677 5677 5677 5678 5678 5679 5679 5680 5680 5680 5680 5681 5682 5683 5683 5683 5683 5684 5686 5687 5688 5688 5689 5690 5692 5693 5695 5697 5699 5701 5703 5705 5707 5708 5708 5709 5710 5712 5714 5716 5717